Time,TemperatureF,DewpointF,PressureIn,WindDirection,WindDirectionDegrees,WindSpeedMPH,WindSpeedGustMPH,Humidity,HourlyPrecipIn,Conditions,Clouds,dailyrainin,SolarRadiationWatts/m^2,SoftwareType,DateUTC
2013-06-20 00:01:00,58.0,46.0,-100.00,West,281,10.0,18.0,64,0.00,,,0.01,0.000000,,2013-06-20 07:01:00,
2013-06-20 00:12:00,58.0,46.0,-100.00,West,281,10.0,18.0,64,0.00,,,0.01,0.000000,,2013-06-20 07:12:00,
2013-06-20 00:22:00,58.0,46.0,-100.00,West,281,10.0,18.0,64,0.00,,,0.01,0.000000,,2013-06-20 07:22:00,
2013-06-20 01:02:00,57.0,47.0,-100.00,West,281,10.0,17.0,68,0.00,,,0.01,0.000000,,2013-06-20 08:02:00,
2013-06-20 01:11:00,57.0,47.0,-100.00,West,281,10.0,17.0,68,0.00,,,0.01,0.000000,,2013-06-20 08:11:00,
2013-06-20 01:22:00,57.0,47.0,-100.00,West,281,10.0,17.0,68,0.00,,,0.01,0.000000,,2013-06-20 08:22:00,
2013-06-20 01:53:00,58.0,46.0,-100.00,West,274,12.0,16.0,64,0.00,,,0.01,0.000000,,2013-06-20 08:53:00,
2013-06-20 02:01:00,58.0,46.0,-100.00,West,274,12.0,16.0,64,0.00,,,0.01,0.000000,,2013-06-20 09:01:00,
2013-06-20 02:11:00,58.0,46.0,-100.00,West,274,12.0,16.0,64,0.00,,,0.01,0.000000,,2013-06-20 09:11:00,
2013-06-20 02:22:00,58.0,46.0,-100.00,West,274,12.0,16.0,64,0.00,,,0.01,0.000000,,2013-06-20 09:22:00,
2013-06-20 02:52:00,57.0,45.0,-100.00,West,269,15.0,22.0,64,0.00,,,0.01,0.000000,,2013-06-20 09:52:00,
2013-06-20 03:01:00,57.0,45.0,-100.00,West,269,15.0,22.0,64,0.00,,,0.01,0.000000,,2013-06-20 10:01:00,
2013-06-20 03:11:00,57.0,45.0,-100.00,West,269,15.0,22.0,64,0.00,,,0.01,0.000000,,2013-06-20 10:11:00,
2013-06-20 03:22:00,57.0,45.0,-100.00,West,269,15.0,22.0,64,0.00,,,0.01,0.000000,,2013-06-20 10:22:00,
2013-06-20 03:53:00,57.0,43.0,-100.00,WNW,283,17.0,25.0,60,0.00,,,0.01,0.000000,,2013-06-20 10:53:00,
2013-06-20 04:02:00,57.0,43.0,-100.00,WNW,283,17.0,25.0,60,0.00,,,0.01,0.000000,,2013-06-20 11:02:00,
2013-06-20 04:11:00,57.0,43.0,-100.00,WNW,283,17.0,25.0,60,0.00,,,0.01,0.000000,,2013-06-20 11:11:00,
2013-06-20 04:22:00,57.0,43.0,-100.00,WNW,283,17.0,25.0,60,0.00,,,0.01,0.000000,,2013-06-20 11:22:00,
2013-06-20 04:53:00,57.0,44.0,-100.00,West,275,12.0,23.0,61,0.00,,,0.01,0.000000,,2013-06-20 11:53:00,
2013-06-20 05:02:00,57.0,44.0,-100.00,West,275,12.0,23.0,61,0.00,,,0.01,0.000000,,2013-06-20 12:02:00,
2013-06-20 05:11:00,57.0,44.0,-100.00,West,275,12.0,23.0,61,0.00,,,0.01,0.000000,,2013-06-20 12:11:00,
2013-06-20 05:22:00,57.0,44.0,-100.00,West,275,12.0,23.0,61,0.00,,,0.01,0.000000,,2013-06-20 12:22:00,
2013-06-20 06:02:00,54.0,46.0,-100.00,WSW,239,4.0,16.0,73,0.00,,,-99.99,1.000000,,2013-06-20 13:02:00,
2013-06-20 06:11:00,54.0,46.0,-100.00,WSW,239,4.0,16.0,73,0.00,,,-99.99,1.000000,,2013-06-20 13:11:00,
2013-06-20 06:22:00,54.0,46.0,-100.00,WSW,239,4.0,16.0,73,0.00,,,-99.99,1.000000,,2013-06-20 13:22:00,
2013-06-20 07:01:00,54.0,46.0,-100.00,West,271,7.0,12.0,73,0.00,,,0.01,14.000000,,2013-06-20 14:01:00,
2013-06-20 07:11:00,54.0,46.0,-100.00,West,271,7.0,12.0,73,0.00,,,0.01,14.000000,,2013-06-20 14:11:00,
2013-06-20 07:22:00,54.0,46.0,-100.00,West,271,7.0,12.0,73,0.00,,,0.01,14.000000,,2013-06-20 14:22:00,
2013-06-20 08:01:00,55.0,46.0,-100.00,SW,231,6.0,9.0,72,0.00,,,0.00,47.000000,,2013-06-20 15:01:00,
2013-06-20 08:11:00,55.0,46.0,-100.00,SW,231,6.0,9.0,72,0.00,,,0.00,47.000000,,2013-06-20 15:11:00,
2013-06-20 08:22:00,55.0,46.0,-100.00,SW,231,6.0,9.0,72,0.00,,,0.00,47.000000,,2013-06-20 15:22:00,
2013-06-20 08:53:00,53.0,48.0,-100.00,WSW,242,7.0,11.0,82,0.03,,,0.03,77.000000,,2013-06-20 15:53:00,
2013-06-20 09:01:00,53.0,48.0,-100.00,WSW,242,7.0,11.0,82,0.03,,,0.03,77.000000,,2013-06-20 16:01:00,
2013-06-20 09:11:00,53.0,48.0,-100.00,WSW,242,7.0,11.0,82,0.03,,,0.03,77.000000,,2013-06-20 16:11:00,
2013-06-20 09:22:00,53.0,48.0,-100.00,WSW,242,7.0,11.0,82,0.03,,,0.03,77.000000,,2013-06-20 16:22:00,
2013-06-20 09:52:00,53.0,49.0,-100.00,SW,236,9.0,13.0,87,0.05,,,0.08,115.000000,,2013-06-20 16:52:00,
2013-06-20 10:01:00,53.0,49.0,-100.00,SW,236,9.0,13.0,87,0.05,,,0.08,115.000000,,2013-06-20 17:01:00,
2013-06-20 10:11:00,53.0,49.0,-100.00,SW,236,9.0,13.0,87,0.05,,,0.08,115.000000,,2013-06-20 17:11:00,
2013-06-20 10:21:00,53.0,49.0,-100.00,SW,236,9.0,13.0,87,0.05,,,0.08,115.000000,,2013-06-20 17:21:00,
2013-06-20 10:53:00,53.0,49.0,-100.00,SW,236,9.0,17.0,85,0.05,,,0.13,159.000000,,2013-06-20 17:53:00,
2013-06-20 11:01:00,53.0,49.0,-100.00,SW,236,9.0,17.0,85,0.05,,,0.13,159.000000,,2013-06-20 18:01:00,
2013-06-20 11:11:00,53.0,49.0,-100.00,SW,236,9.0,17.0,85,0.05,,,0.13,159.000000,,2013-06-20 18:11:00,
2013-06-20 11:22:00,53.0,49.0,-100.00,SW,236,9.0,17.0,85,0.05,,,0.13,159.000000,,2013-06-20 18:22:00,
2013-06-20 11:53:00,55.0,52.0,-100.00,SSW,200,5.0,13.0,89,0.06,,,0.19,209.000000,,2013-06-20 18:53:00,
2013-06-20 12:01:00,55.0,52.0,-100.00,SSW,200,5.0,13.0,89,0.06,,,0.19,209.000000,,2013-06-20 19:01:00,
2013-06-20 12:11:00,55.0,52.0,-100.00,SSW,200,5.0,13.0,89,0.06,,,0.19,209.000000,,2013-06-20 19:11:00,
2013-06-20 12:22:00,55.0,52.0,-100.00,SSW,200,5.0,13.0,89,0.06,,,0.19,209.000000,,2013-06-20 19:22:00,
2013-06-20 12:52:00,57.0,52.0,-100.00,SSW,212,4.0,10.0,84,0.03,,,0.22,235.000000,,2013-06-20 19:52:00,
2013-06-20 13:02:00,57.0,52.0,-100.00,SSW,212,4.0,10.0,84,0.03,,,0.22,235.000000,,2013-06-20 20:02:00,
2013-06-20 13:11:00,57.0,52.0,-100.00,SSW,212,4.0,10.0,84,0.03,,,0.22,235.000000,,2013-06-20 20:11:00,
2013-06-20 13:22:00,57.0,52.0,-100.00,SSW,212,4.0,10.0,84,0.03,,,0.22,235.000000,,2013-06-20 20:22:00,
2013-06-20 13:52:00,59.0,51.0,-100.00,SW,214,6.0,10.0,74,0.00,,,0.22,272.000000,,2013-06-20 20:52:00,
2013-06-20 14:01:00,59.0,51.0,-100.00,SW,214,6.0,10.0,74,0.00,,,0.22,272.000000,,2013-06-20 21:01:00,
2013-06-20 14:11:00,59.0,51.0,-100.00,SW,214,6.0,10.0,74,0.00,,,0.22,272.000000,,2013-06-20 21:11:00,
2013-06-20 17:11:00,59.0,48.0,-100.00,WSW,257,6.0,9.0,67,0.01,,,0.23,235.000000,,2013-06-21 00:11:00,